K5RNB Weather Reports


Display with metric or nautical units.
time (UTC)temp
F
wind
direction
speed
MPH
gust
MPH
rain 1hr
in
rain 24hr
in
rain mn
in
humidity
%
barometer
mb
20260904043922 82 145 9.0 14.0 0.00 0.00 0.00 69 1011.3
20260904043422 82 157 8.0 15.0 0.00 0.00 0.00 69 1011.2
20260904042922 83 146 8.0 16.0 0.00 0.00 0.00 69 1011.3
20260904042422 83 154 10.0 16.0 0.00 0.00 0.00 69 1011.2
20260904041922 83 154 10.0 14.0 0.00 0.00 0.00 69 1011.3
20260904041422 83 151 8.0 16.0 0.00 0.00 0.00 69 1011.2
20260904040922 83 135 10.0 16.0 0.00 0.00 0.00 69 1011.3
20260904040423 83 150 9.0 16.0 0.00 0.00 0.00 69 1011.1
20260904035923 83 154 11.0 15.0 0.00 0.00 0.00 69 1011.3
20260904035423 84 143 8.0 15.0 0.00 0.00 0.00 69 1011.3
20260904034422 84 153 11.0 17.0 0.00 0.00 0.00 68 1011.3
20260904033922 84 132 10.0 17.0 0.00 0.00 0.00 69 1011.2
20260904032922 84 158 9.0 20.0 0.00 0.00 0.00 68 1011.2
20260904032423 84 158 12.0 18.0 0.00 0.00 0.00 68 1011.3
20260904031423 84 149 9.0 14.0 0.00 0.00 0.00 69 1011.3
20260904030923 84 152 7.0 13.0 0.00 0.00 0.00 69 1011.1
20260904025923 84 160 6.0 12.0 0.00 0.00 0.00 69 1011.0
20260904025423 84 152 6.0 13.0 0.00 0.00 0.00 69 1010.9
20260904024925 85 171 9.0 13.0 0.00 0.00 0.00 69 1010.8
20260904023923 85 161 7.0 13.0 0.00 0.00 0.00 68 1010.7
20260904023423 85 154 9.0 13.0 0.00 0.00 0.00 68 1010.7
20260904022923 85 151 10.0 16.0 0.00 0.00 0.00 67 1010.5
20260904022425 85 129 8.0 16.0 0.00 0.00 0.00 67 1010.5
20260904021923 85 142 9.0 17.0 0.00 0.00 0.00 67 1010.4
20260904021423 85 128 11.0 18.0 0.00 0.00 0.00 67 1010.4
20260904020923 86 140 11.0 18.0 0.00 0.00 0.00 67 1010.2
20260904020423 86 118 7.0 16.0 0.00 0.00 0.00 67 1010.2
20260904015423 86 106 7.0 14.0 0.00 0.00 0.00 67 1010.1
20260904014923 86 130 8.0 16.0 0.00 0.00 0.00 66 1010.0
20260904013923 87 151 9.0 18.0 0.00 0.00 0.00 66 1009.7
20260904013423 87 136 9.0 20.0 0.00 0.00 0.00 66 1009.7
20260904012923 87 149 12.0 20.0 0.00 0.00 0.00 66 1009.5
20260904012424 87 140 11.0 20.0 0.00 0.00 0.00 66 1009.5
20260904011925 87 147 9.0 17.0 0.00 0.00 0.00 65 1009.4
20260904011424 87 131 10.0 17.0 0.00 0.00 0.00 65 1009.4
20260904010924 87 133 6.0 14.0 0.00 0.00 0.00 64 1009.4
20260904005924 88 152 11.0 14.0 0.00 0.00 0.00 63 1009.3
20260904005424 88 147 7.0 13.0 0.00 0.00 0.00 63 1009.3
20260904004924 88 154 8.0 12.0 0.00 0.00 0.00 63 1009.2
20260904004423 88 152 8.0 12.0 0.00 0.00 0.00 63 1009.2
20260904003423 89 150 8.0 13.0 0.00 0.00 0.00 63 1009.2
20260904002923 89 143 8.0 13.0 0.00 0.00 0.00 63 1009.2
20260904002423 89 140 7.0 14.0 0.00 0.00 0.00 63 1009.2
20260904001925 89 148 7.0 17.0 0.00 0.00 0.00 63 1009.2
20260904001426 89 138 9.0 17.0 0.00 0.00 0.00 63 1009.1
20260904000924 89 138 10.0 14.0 0.00 0.00 0.00 63 1009.1
20260904000425 89 131 7.0 12.0 0.00 0.00 0.00 63 1008.9
20260903235923 89 146 6.0 15.0 0.00 0.00 0.00 62 1009.0
20260903235425 89 155 10.0 15.0 0.00 0.00 0.00 62 1008.9
20260903234424 89 133 7.0 14.0 0.00 0.00 0.00 62 1008.8
20260903233926 89 138 7.0 15.0 0.00 0.00 0.00 62 1008.9
20260903233426 90 138 7.0 18.0 0.00 0.00 0.00 62 1008.8
20260903232924 90 140 10.0 18.0 0.00 0.00 0.00 61 1008.9
20260903232424 90 128 6.0 16.0 0.00 0.00 0.00 61 1008.8
20260903231924 90 121 9.0 16.0 0.00 0.00 0.00 61 1008.8
20260903231424 91 152 11.0 16.0 0.00 0.00 0.00 60 1008.6
20260903230924 92 147 9.0 14.0 0.00 0.00 0.00 59 1008.5
20260903230425 92 108 6.0 14.0 0.00 0.00 0.00 59 1008.5
20260903225924 91 112 7.0 14.0 0.00 0.00 0.00 61 1008.6
20260903225424 91 95 6.0 14.0 0.00 0.00 0.00 61 1008.7
20260903224924 91 165 10.0 17.0 0.00 0.00 0.00 60 1008.8
20260903223925 92 180 9.0 15.0 0.00 0.00 0.00 60 1008.7
20260903223425 91 117 7.0 14.0 0.00 0.00 0.00 61 1008.7
20260903222926 91 116 9.0 14.0 0.00 0.00 0.00 61 1008.6
20260903221925 90 141 10.0 16.0 0.00 0.00 0.00 62 1008.5
20260903221424 90 153 11.0 15.0 0.00 0.00 0.00 62 1008.7
20260903220924 90 156 12.0 17.0 0.00 0.00 0.00 62 1008.7
20260903220426 90 119 9.0 17.0 0.00 0.00 0.00 62 1008.8
20260903215925 90 136 7.0 18.0 0.00 0.00 0.00 62 1008.6
20260903214925 91 143 9.0 17.0 0.00 0.00 0.00 60 1008.8
20260903214425 92 146 9.0 17.0 0.00 0.00 0.00 60 1008.8
20260903213925 92 118 5.0 18.0 0.00 0.00 0.00 60 1008.8
20260903212925 92 126 10.0 20.0 0.00 0.00 0.00 61 1008.7
20260903212425 91 125 12.0 20.0 0.00 0.00 0.00 61 1008.7
20260903211925 91 127 10.0 15.0 0.00 0.00 0.00 62 1008.8
20260903211425 92 155 12.0 20.0 0.00 0.00 0.00 61 1008.8
20260903210925 91 175 11.0 20.0 0.00 0.00 0.00 63 1009.0
20260903205927 90 187 13.0 20.0 0.00 0.00 0.00 64 1009.1
20260903205425 90 196 12.0 20.0 0.00 0.00 0.00 64 1009.2
20260903204925 91 175 13.0 20.0 0.00 0.00 0.00 64 1009.4
20260903204425 91 151 13.0 23.0 0.00 0.00 0.00 64 1009.4
20260903203925 91 168 13.0 23.0 0.00 0.00 0.00 64 1009.3
20260903203425 91 141 12.0 20.0 0.00 0.00 0.00 65 1009.4
20260903202925 90 158 13.0 22.0 0.00 0.00 0.00 65 1009.4
20260903202425 90 171 13.0 22.0 0.00 0.00 0.00 65 1009.5
20260903201926 90 158 13.0 21.0 0.00 0.00 0.00 64 1009.6
20260903200925 91 162 14.0 20.0 0.00 0.00 0.00 64 1009.7
20260903200425 91 153 12.0 22.0 0.00 0.00 0.00 66 1009.6
20260903195925 90 160 11.0 22.0 0.00 0.00 0.00 66 1009.7
20260903195425 90 149 10.0 20.0 0.00 0.00 0.00 67 1009.7
20260903194926 90 176 13.0 20.0 0.00 0.00 0.00 66 1009.9
20260903194426 90 125 10.0 22.0 0.00 0.00 0.00 67 1009.8
20260903193426 89 161 14.0 23.0 0.00 0.00 0.00 68 1010.0
20260903192926 89 174 13.0 20.0 0.00 0.00 0.00 68 1010.1
20260903191425 89 166 15.0 20.0 0.00 0.00 0.00 68 1010.3
20260903190927 89 189 10.0 22.0 0.00 0.00 0.00 68 1010.3
20260903185925 90 162 7.0 15.0 0.00 0.00 0.00 67 1010.5
20260903185425 90 126 9.0 16.0 0.00 0.00 0.00 67 1010.6
20260903184426 89 161 12.0 23.0 0.00 0.00 0.00 67 1010.7
20260903183926 90 135 10.0 23.0 0.00 0.00 0.00 66 1010.7
20260903183426 90 163 14.0 23.0 0.00 0.00 0.00 66 1010.8
20260903182928 90 126 10.0 20.0 0.00 0.00 0.00 67 1010.8
20260903182426 90 175 14.0 20.0 0.00 0.00 0.00 66 1010.8
20260903181926 89 156 11.0 20.0 0.00 0.00 0.00 68 1010.8
20260903181426 89 196 12.0 23.0 0.00 0.00 0.00 68 1010.8
20260903180928 89 147 14.0 23.0 0.00 0.00 0.00 68 1010.9
20260903180426 89 169 12.0 20.0 0.00 0.00 0.00 68 1011.0
20260903175426 88 193 10.0 16.0 0.00 0.00 0.00 69 1011.1
20260903174926 88 188 8.0 18.0 0.00 0.00 0.00 70 1011.3
20260903174426 87 143 12.0 18.0 0.00 0.00 0.00 70 1011.3
20260903173926 87 140 8.0 20.0 0.00 0.00 0.00 71 1011.4
20260903172926 86 189 10.0 18.0 0.00 0.00 0.00 71 1011.6
20260903172426 86 197 10.0 18.0 0.00 0.00 0.00 72 1011.7
20260903171926 86 152 11.0 18.0 0.00 0.00 0.00 72 1011.6
20260903171426 86 173 10.0 18.0 0.00 0.00 0.00 72 1011.7
20260903170926 86 164 11.0 17.0 0.00 0.00 0.00 72 1011.7
20260903170426 86 170 9.0 14.0 0.00 0.00 0.00 73 1011.7
20260903165928 85 188 9.0 17.0 0.00 0.00 0.00 73 1011.6
20260903164927 85 176 10.0 16.0 0.00 0.00 0.00 73 1011.6
20260903164427 85 154 7.0 16.0 0.00 0.00 0.00 73 1011.7
20260903163426 84 186 11.0 16.0 0.00 0.00 0.00 74 1011.8
20260903162928 84 163 13.0 16.0 0.00 0.00 0.00 74 1011.7
20260903162426 84 109 8.0 16.0 0.00 0.00 0.00 75 1011.7
20260903161928 84 136 10.0 16.0 0.00 0.00 0.00 75 1011.9
20260903161427 85 148 10.0 14.0 0.00 0.00 0.00 74 1011.8
20260903155927 84 158 7.0 13.0 0.00 0.00 0.00 76 1011.7
20260903155427 84 123 8.0 12.0 0.00 0.00 0.00 76 1011.5
20260903154926 84 159 3.0 12.0 0.00 0.00 0.00 78 1011.8
20260903154428 83 150 9.0 12.0 0.00 0.00 0.00 78 1011.7
20260903153927 82 177 7.0 12.0 0.00 0.00 0.00 78 1011.7
20260903152927 82 182 7.0 12.0 0.00 0.00 0.00 78 1011.7
20260903152427 83 153 7.0 12.0 0.00 0.00 0.00 78 1011.7
20260903151927 83 143 8.0 12.0 0.00 0.00 0.00 78 1011.7
20260903151427 82 137 7.0 12.0 0.00 0.00 0.00 78 1011.7
20260903150927 82 121 6.0 12.0 0.00 0.00 0.00 79 1011.7
20260903150427 82 118 7.0 12.0 0.00 0.00 0.00 78 1011.7
20260903145929 82 124 6.0 14.0 0.00 0.00 0.00 78 1011.7
20260903144427 82 142 6.0 12.0 0.00 0.00 0.00 78 1011.9
20260903143927 82 131 5.0 15.0 0.00 0.00 0.00 78 1011.7
20260903143428 82 126 8.0 15.0 0.00 0.00 0.00 77 1011.7
20260903142927 82 148 8.0 12.0 0.00 0.00 0.00 76 1011.8
20260903142428 83 139 7.0 12.0 0.00 0.00 0.00 75 1011.7
20260903141928 83 127 6.0 12.0 0.00 0.00 0.00 75 1011.7
20260903140927 83 105 5.0 13.0 0.00 0.00 0.00 76 1011.7
20260903140427 83 117 6.0 12.0 0.00 0.00 0.00 75 1011.6
20260903135927 84 107 5.0 12.0 0.00 0.00 0.00 76 1011.7
20260903134928 83 99 2.0 8.0 0.00 0.00 0.00 77 1011.6
20260903134427 83 91 3.0 9.0 0.00 0.00 0.00 78 1011.7
20260903133927 82 87 3.0 9.0 0.00 0.00 0.00 78 1011.7
20260903133428 82 90 4.0 9.0 0.00 0.00 0.00 78 1011.8
20260903131928 82 80 2.0 7.0 0.00 0.00 0.00 80 1011.6
20260903131428 81 85 2.0 7.0 0.00 0.00 0.00 81 1011.8
20260903130928 80 119 0.0 3.0 0.00 0.00 0.00 82 1011.6
20260903130428 80 79 1.0 3.0 0.00 0.00 0.00 81 1011.6
20260903125927 80 85 2.0 5.0 0.00 0.00 0.00 82 1011.7
20260903125428 80 79 1.0 5.0 0.00 0.00 0.00 82 1011.6
20260903124927 80 72 2.0 3.0 0.00 0.00 0.00 81 1011.6
20260903124428 80 88 0.0 1.0 0.00 0.00 0.00 81 1011.5
20260903123928 80 66 0.0 1.0 0.00 0.00 0.00 82 1011.5
20260903123428 79 92 0.0 3.0 0.00 0.00 0.00 81 1011.4
20260903122930 80 89 1.0 3.0 0.00 0.00 0.00 82 1011.3
20260903122427 79 77 2.0 3.0 0.00 0.00 0.00 82 1011.4
20260903121428 79 82 1.0 3.0 0.00 0.00 0.00 81 1011.3
20260903120928 80 91 1.0 5.0 0.00 0.00 0.00 81 1011.1
20260903120428 79 88 2.0 5.0 0.00 0.00 0.00 81 1011.1
20260903115428 80 80 0.0 3.0 0.00 0.00 0.00 81 1011.0
20260903114929 80 84 1.0 6.0 0.00 0.00 0.00 80 1011.1
20260903114428 80 85 2.0 6.0 0.00 0.00 0.00 80 1011.0
20260903113928 80 71 2.0 5.0 0.00 0.00 0.00 80 1011.1
20260903113428 80 85 1.0 3.0 0.00 0.00 0.00 80 1011.0
20260903112928 80 87 1.0 3.0 0.00 0.00 0.00 79 1011.2
20260903111428 80 89 1.0 3.0 0.00 0.00 0.00 80 1011.0
20260903110429 80 81 1.0 3.0 0.00 0.00 0.00 81 1010.9
20260903105929 79 118 2.0 3.0 0.00 0.00 0.00 81 1010.8
20260903105429 80 122 3.0 3.0 0.00 0.00 0.00 81 1010.8
20260903104929 79 109 2.0 6.0 0.00 0.00 0.00 81 1010.7
20260903103928 79 110 3.0 6.0 0.00 0.00 0.00 81 1010.8
20260903102929 80 140 3.0 5.0 0.00 0.00 0.00 79 1010.8
20260903102428 80 137 3.0 5.0 0.00 0.00 0.00 78 1010.9
20260903101929 81 124 2.0 7.0 0.00 0.00 0.00 77 1010.9
20260903100929 82 89 2.0 6.0 0.00 0.00 0.00 76 1010.8
20260903100428 82 103 2.0 6.0 0.00 0.00 0.00 77 1010.8
20260903095429 82 92 3.0 8.0 0.00 0.00 0.00 76 1010.8
20260903094929 82 97 3.0 8.0 0.00 0.00 0.00 76 1010.9
20260903094429 82 94 2.0 9.0 0.00 0.00 0.00 76 1010.8
20260903093929 82 89 4.0 9.0 0.00 0.00 0.00 75 1010.8
20260903093429 82 99 5.0 9.0 0.00 0.00 0.00 75 1010.9
20260903092930 82 83 2.0 10.0 0.00 0.00 0.00 75 1010.7
20260903092429 82 87 3.0 10.0 0.00 0.00 0.00 74 1010.8
20260903091930 83 96 3.0 9.0 0.00 0.00 0.00 74 1010.7
20260903091428 83 86 3.0 5.0 0.00 0.00 0.00 75 1010.7
20260903090929 82 96 1.0 5.0 0.00 0.00 0.00 74 1010.6
20260903090429 83 84 3.0 5.0 0.00 0.00 0.00 74 1010.7
20260903085929 82 85 0.0 3.0 0.00 0.00 0.00 75 1010.7
20260903085429 82 77 1.0 3.0 0.00 0.00 0.00 75 1010.8
20260903083930 81 103 0.0 2.0 0.00 0.00 0.00 76 1010.8
20260903083429 81 103 1.0 2.0 0.00 0.00 0.00 75 1010.8
20260903082429 82 103 0.0 1.0 0.00 0.00 0.00 75 1010.8
20260903081430 82 103 0.0 2.0 0.00 0.00 0.00 75 1011.0
20260903080930 82 103 0.0 3.0 0.00 0.00 0.00 74 1011.1
20260903080429 82 94 0.0 3.0 0.00 0.00 0.00 74 1011.0
20260903075929 82 52 0.0 1.0 0.00 0.00 0.00 74 1011.0
20260903075429 82 69 0.0 3.0 0.00 0.00 0.00 75 1010.9
20260903074929 82 90 1.0 3.0 0.00 0.00 0.00 75 1010.9
20260903074430 82 75 1.0 6.0 0.00 0.00 0.00 75 1010.9
20260903073930 81 86 2.0 7.0 0.00 0.00 0.00 75 1011.0
20260903072930 82 97 3.0 7.0 0.00 0.00 0.00 75 1010.9
20260903072430 82 92 1.0 3.0 0.00 0.00 0.00 74 1010.9
20260903071930 82 91 2.0 3.0 0.00 0.00 0.00 74 1011.0
20260903071430 82 88 2.0 7.0 0.00 0.00 0.00 74 1010.9
20260903070929 82 88 3.0 8.0 0.00 0.00 0.00 75 1011.1
20260903070430 82 112 4.0 9.0 0.00 0.00 0.00 74 1011.0
20260903065930 82 99 4.0 9.0 0.00 0.00 0.00 74 1011.1
20260903065430 82 98 5.0 9.0 0.00 0.00 0.00 74 1011.0
20260903064930 82 102 5.0 12.0 0.00 0.00 0.00 74 1011.2
20260903064430 82 99 5.0 12.0 0.00 0.00 0.00 73 1011.1
20260903063430 82 96 4.0 10.0 0.00 0.00 0.00 73 1011.2
20260903062929 82 108 5.0 9.0 0.00 0.00 0.00 72 1011.2
20260903061930 83 113 5.0 13.0 0.00 0.00 0.00 72 1011.2
20260903061430 83 122 5.0 13.0 0.00 0.00 0.00 71 1011.4
20260903060930 83 101 6.0 13.0 0.00 0.00 0.00 71 1011.3
20260903060430 83 124 7.0 13.0 0.00 0.00 0.00 70 1011.4
20260903055930 83 91 4.0 13.0 0.00 0.00 0.00 70 1011.4
20260903055430 83 96 9.0 14.0 0.00 0.00 0.00 69 1011.6
20260903054430 84 112 9.0 17.0 0.00 0.00 0.00 67 1011.6
20260903053930 84 109 9.0 16.0 0.00 0.00 0.00 66 1011.4
20260903052931 85 100 8.0 13.0 0.00 0.00 0.00 64 1011.6
20260903051430 85 102 5.0 12.0 0.00 0.00 0.00 64 1011.6
20260903050431 85 100 7.0 12.0 0.00 0.00 0.00 64 1011.5
20260903045431 85 100 5.0 17.0 0.00 0.00 0.00 64 1011.4
20260903044931 86 113 10.0 17.0 0.00 0.00 0.00 63 1011.3
20260903044430 86 112 8.0 13.0 0.00 0.00 0.00 62 1011.4